Search your local weather  

 
Advertise Here

Hazardous Weather Conditions

Wind Advisory issued February 28 at 3:38PM EST until March 2 at 6:00AM EST

Current Conditions: NEW YORK, NEW YORK

Fog/Mist


41.0 F

Last Updated on Feb 28 2021, 6:51 pm EST
Humidity: 89%
Wind Speed: E 5.8 mph
Barometer 30.07 in
Dewpoint: 37.9 F
Visibility: 5.00 mi
Precip: Trace
Heat Index: NA
Wind Chill: 37 F
Current conditions at:

Teterboro, Teterboro Airport, NJ (KTEB)

Lat: 40.85889 Lon: -74.05667

Local Radar Image active severe weather and emergency alerts image image weather storm and storm spotter reports image weather observation monitoring service image
Local
Radar
Active
Alerts
Storm Reports Weather
Monitoring

5 Day Forecast for NEW YORK, NEW YORK (10001)

Sunday
Night
Rain Likely
Low 41 °F
Monday

Chance of Snow
High 51 °F
Monday
Night
Slight Chance of Snow
Low 21 °F
Tuesday

Mostly Sunny

High 35 °F
Tuesday
Night
Mostly Clear

Low 30 °F
Wednesday

Partly Sunny

High 49 °F
Wednesday
Night
Mostly Clear

Low 32 °F
Thursday

Partly Sunny

High 44 °F
Thursday
Night
Mostly Clear

Low 26 °F

Sign-up For Email & Text Message Weather Alert Notification Services


Advertise Here

Observation History for NEW YORK, NEW YORK


Time Wind
(mph)
Vis
(mi)
Weather Precip (in) Temperature (F) Relative
Humidity
Wind
Chill
(F)
Heat
Index
(F)
Pressure
Air Dwpt altimeter
(in)
sea level
(mb)
6:51 pm EST E 5.8 5.00 Fog/Mist Trace 41.0 37.9 89% 37 NA 30.07 1018.1
5:51 pm EST E 4.6 5.00 Light Rain Fog/Mist 00.01 41.0 37.9 89% 38 NA 30.08 1018.4
4:51 pm EST SE 4.6 4.00 Rain Fog/Mist -- 41.0 37.0 86% 38 NA 30.11 1019.7
3:51 pm EST SE 4.6 5.00 Light Rain Fog/Mist -- 42.0 37.0 82% 39 NA 30.17 1021.6
2:51 pm EST E 3.5 6.00 Light Rain 00.03 41.0 35.1 79% NA NA 30.20 1022.7
1:51 pm EST E 9.2 10.00 Light Rain -- 42.0 33.1 71% 36 NA 30.22 1023.3
12:51 pm EST E 5.8 10.00 Light Rain Trace 44.0 33.1 65% 41 NA 30.23 1023.7
11:51 am EST NE 4.6 10.00 Light Rain Trace 43.0 34.0 71% 40 NA 30.24 1024.0
10:51 am EST N 4.6 10.00 Overcast -- 42.0 34.0 73% 39 NA 30.28 1025.2
9:51 am EST N 5.8 10.00 A Few Clouds -- 41.0 33.1 73% 37 NA 30.30 1026.0
8:51 am EST N 4.6 10.00 Fair -- 40.0 33.1 77% 37 NA 30.31 1026.2
7:51 am EST N 4.6 10.00 Fair -- 39.0 33.1 79% 36 NA 30.33 1027.2
6:51 am EST N 0.0 10.00 Fair -- 38.0 32.0 79% NA NA 30.33 1027.0
5:51 am EST N 0.0 10.00 Fair -- 38.0 32.0 79% NA NA 30.33 1027.1
4:51 am EST N 0.0 10.00 Fair -- 37.0 32.0 82% NA NA 30.29 1025.8
3:51 am EST N 0.0 10.00 Fair -- 35.0 30.0 82% NA NA 30.28 1025.2
2:51 am EST N 0.0 10.00 Fair -- 41.0 32.0 70% NA NA 30.25 1024.3
1:51 am EST N 6.9 10.00 Fair -- 41.0 34.0 76% 36 NA 30.23 1023.6
12:51 am EST W 5.8 10.00 Fair -- 40.0 35.1 83% 36 NA 30.21 1022.9
11:51 pm EST SW 4.6 10.00 Fair -- 38.0 35.1 89% 34 NA 30.21 1022.8
10:51 pm EST W 4.6 10.00 Fair -- 41.0 37.0 86% 38 NA 30.20 1022.6
9:51 pm EST N 0.0 10.00 Fair -- 39.0 34.0 82% NA NA 30.18 1021.8
8:51 pm EST SW 6.9 10.00 Fair -- 41.0 37.9 89% 36 NA 30.16 1021.2

Regional Weather Observation

Caldwell, Essex County Airport, NJ (KCDW)

Fog/Mist
41.0 F

New York Downtown Manhattan, NY (KJRB)

Light Rain
42.0 F

Morristown Municipal, NJ (KMMU)

Fog/Mist
41.0 F

Newark, Newark International Airport, NJ (KEWR)

Light Rain Fog/Mist
42.0 F

Linden Airport, NJ (KLDJ)

Light Drizzle
42.0 F

New York City, Central Park, NY (KNYC)

Fog/Mist
43.0 F
Advertise Here

Advertise Here